EW8320 Weather Reports


Display with metric or nautical units.
time (UTC)temp
F
wind
direction
speed
MPH
gust
MPH
rain 1hr
in
rain 24hr
in
rain mn
in
humidity
%
barometer
mb
20260507175520 59 91 0.0 0.0 0.00 0.00 0.00 45 1020.5
20260507174618 59 90 0.0 0.0 0.00 0.00 0.00 46 1020.7
20260507171620 60 357 0.0 0.0 0.00 0.00 0.00 45 1020.5
20260507170620 59 65 0.0 0.0 0.00 0.00 0.00 47 1020.6
20260507165620 59 37 0.0 0.0 0.00 0.00 0.00 47 1020.5
20260507164638 58 202 0.0 0.0 0.00 0.00 0.00 49 1020.6
20260507163620 57 157 0.0 0.0 0.00 0.00 0.00 51 1020.8
20260507162620 57 113 0.0 0.0 0.00 0.00 0.00 51 1020.7
20260507161719 56 226 0.0 0.0 0.00 0.00 0.00 52 1020.9
20260507160726 56 186 0.0 0.0 0.00 0.00 0.00 54 1020.9
20260507154920 60 218 0.0 0.0 0.00 0.00 0.00 100 1021.0
20260507153920 60 236 0.0 0.0 0.00 0.00 0.00 100 1020.8
20260507152926 59 265 0.0 0.0 0.00 0.00 0.00 98 1021.0
20260507152021 54 226 0.0 0.0 0.00 0.00 0.00 100 1020.8
20260507151118 57 254 0.0 0.0 0.00 0.00 0.00 100 1020.9
20260507150124 54 276 0.0 0.0 0.00 0.00 0.00 100 1020.8
20260507145120 54 229 0.0 0.0 0.00 0.00 0.00 95 1020.7
20260507144120 54 264 0.0 0.0 0.00 0.00 0.00 100 1020.6
20260507143120 54 246 0.0 0.0 0.00 0.00 0.00 100 1020.6
20260507141119 56 207 0.0 0.0 0.00 0.00 0.00 99 1020.3
20260507140119 55 263 0.0 0.0 0.00 0.00 0.00 100 1020.3
20260507135126 53 247 0.0 0.0 0.00 0.00 0.00 98 1020.2
20260507134122 51 258 0.0 0.0 0.00 0.00 0.00 100 1020.2
20260507133122 50 226 0.0 0.0 0.00 0.00 0.00 95 1020.2
20260507132122 53 261 0.0 0.0 0.00 0.00 0.00 100 1020.0
20260507131121 50 264 0.0 0.0 0.00 0.00 0.00 98 1019.7
20260507130219 41 277 0.0 0.0 0.00 0.00 0.00 100 1019.7
20260507125219 39 254 0.0 0.0 0.00 0.00 0.00 79 1019.5
20260507124222 39 227 0.0 0.0 0.00 0.00 0.00 79 1019.5
20260507123220 40 247 0.0 0.0 0.00 0.00 0.00 76 1019.5
20260507121238 41 270 0.0 0.0 0.00 0.00 0.00 76 1019.4
20260507120223 41 258 0.0 0.0 0.00 0.00 0.00 78 1019.3
20260507115320 41 270 0.0 0.0 0.00 0.00 0.00 77 1019.2
20260507114320 41 255 0.0 0.0 0.00 0.00 0.00 77 1019.2
20260507113324 41 67 0.0 0.0 0.00 0.00 0.00 76 1019.3
20260507111520 40 202 0.0 0.0 0.00 0.00 0.00 78 1019.2
20260507110619 37 337 0.0 0.0 0.00 0.00 0.00 77 1019.2
20260507105620 35 337 0.0 0.0 0.00 0.00 0.00 76 1019.1
20260507104619 38 202 0.0 0.0 0.00 0.00 0.00 74 1019.1
20260507103644 40 315 0.0 0.0 0.00 0.00 0.00 73 1019.1
20260507102721 41 270 0.0 0.0 0.00 0.00 0.00 73 1019.1
20260507102619 41 270 0.0 0.0 0.00 0.00 0.00 73 1019.2
20260507101719 41 255 0.0 0.0 0.00 0.00 0.00 70 1019.2
20260507100721 43 225 0.0 0.0 0.00 0.00 0.00 67 1019.4
20260507095720 44 202 0.0 0.0 0.00 0.00 0.00 66 1019.5
20260507094720 46 225 0.0 0.0 0.00 0.00 0.00 61 1019.4
20260507093720 48 337 0.0 0.0 0.00 0.00 0.00 56 1019.4
20260507092621 50 294 0.0 0.0 0.00 0.00 0.00 53 1019.2
20260507091637 49 271 0.0 0.0 0.00 0.00 0.00 54 1019.1
20260507085718 50 292 0.0 0.0 0.00 0.00 0.00 51 1019.2
20260507084724 53 325 0.0 0.0 0.00 0.00 0.00 46 1019.2
20260507083725 53 248 0.0 0.0 0.00 0.00 0.00 46 1019.2
20260507082819 55 360 0.0 0.0 0.00 0.00 0.00 45 1019.4
20260507081818 55 91 0.0 0.0 0.00 0.00 0.00 45 1019.2
20260507081722 55 86 0.0 0.0 0.00 0.00 0.00 45 1019.2
20260507080720 55 80 0.0 0.0 0.00 0.00 0.00 46 1019.2
20260507075720 54 81 0.0 0.0 0.00 0.00 0.00 49 1019.2
20260507074722 53 99 0.0 0.0 0.00 0.00 0.00 53 1019.1
20260507073733 54 288 0.0 0.0 0.00 0.00 0.00 53 1019.1
20260507072722 55 223 0.0 0.0 0.00 0.00 0.00 49 1019.0
20260507071723 56 334 0.0 0.0 0.00 0.00 0.00 49 1018.9
20260507070723 56 224 0.0 0.0 0.00 0.00 0.00 49 1019.1
20260507065808 56 351 0.0 0.0 0.00 0.00 0.00 50 1019.2
20260507065706 56 49 0.0 0.0 0.00 0.00 0.00 50 1019.1
20260507064801 59 352 0.0 0.0 0.00 0.00 0.00 91 1019.3
20260507063806 60 337 0.0 0.0 0.00 0.00 0.00 100 1019.4
20260507062804 65 360 0.0 0.0 0.00 0.00 0.00 99 1018.9
20260507061805 65 56 0.0 0.0 0.00 0.00 0.00 100 1018.9
20260507060902 65 203 0.0 0.0 0.00 0.00 0.00 99 1018.9
20260507055930 63 340 0.0 0.0 0.00 0.00 0.00 98 1019.1
20260507055831 62 337 0.0 0.0 0.00 0.00 0.00 96 1019.1
20260507054929 58 335 0.0 0.0 0.00 0.00 0.00 100 1018.9
20260507053932 56 360 0.0 0.0 0.00 0.00 0.00 47 1019.1
20260507051938 57 45 0.0 0.0 0.00 0.00 0.00 45 1019.3
20260507045932 59 360 0.0 0.0 0.00 0.00 0.00 44 1019.5
20260507045032 60 63 0.0 0.0 0.00 0.00 0.00 41 1019.6
20260507044041 59 64 0.0 0.0 0.00 0.00 0.00 42 1019.5
20260507043130 60 67 0.0 0.0 0.00 0.00 0.00 42 1019.4
20260507042131 59 44 0.0 0.0 0.00 0.00 0.00 44 1019.4
20260507041129 60 47 0.0 0.0 0.00 0.00 0.00 42 1019.3
20260507040131 58 51 0.0 0.0 0.00 0.00 0.00 49 1019.3
20260507035132 58 58 0.0 0.0 0.00 0.00 0.00 48 1019.3
20260507034231 61 54 0.0 0.0 0.00 0.00 0.00 40 1019.2
20260507033329 61 283 0.0 0.0 0.00 0.00 0.00 41 1019.0
20260507032429 59 252 0.0 0.0 0.00 0.00 0.00 46 1019.2
20260507032330 59 247 0.0 0.0 0.00 0.00 0.00 46 1019.2
20260507031332 60 247 0.0 0.0 0.00 0.00 0.00 44 1019.1
20260507030430 62 337 0.0 0.0 0.00 0.00 0.00 38 1019.0
20260507025430 64 299 0.0 0.0 0.00 0.00 0.00 36 1019.1
20260507024432 63 50 0.0 0.0 0.00 0.00 0.00 39 1018.9
20260507023530 63 32 0.0 0.0 0.00 0.00 0.00 41 1019.0
20260507022629 63 337 0.0 0.0 0.00 0.00 0.00 42 1019.0
20260507021632 64 22 0.0 0.0 0.00 0.00 0.00 44 1018.9
20260507020632 64 45 0.0 0.0 0.00 0.00 0.00 46 1019.1
20260507015730 65 65 0.0 0.0 0.00 0.00 0.00 44 1018.9
20260507014731 65 314 0.0 0.0 0.00 0.00 0.00 45 1019.0
20260507013730 66 8 0.0 0.0 0.00 0.00 0.00 46 1018.8
20260507012730 66 59 0.0 0.0 0.00 0.00 0.00 44 1018.8
20260507010733 66 90 9.0 23.0 0.00 0.00 0.00 45 1018.2
20260507005732 67 104 12.0 21.0 0.00 0.00 0.00 45 1018.3
20260507004730 67 95 0.0 0.0 0.00 0.00 0.00 43 1018.2
20260507003731 68 94 0.0 0.0 0.00 0.00 0.00 40 1018.2
20260507002731 68 96 0.0 0.0 0.00 0.00 0.00 40 1018.2
20260507001731 68 85 10.0 22.0 0.00 0.00 0.00 40 1017.9
20260507000830 69 97 0.0 4.0 0.00 0.00 0.00 38 1017.9
20260506235929 70 69 0.0 0.0 0.00 0.00 0.00 37 1017.8
20260506234933 71 93 0.0 0.0 0.00 0.00 0.00 37 1017.7
20260506234030 71 132 0.0 0.0 0.00 0.00 0.00 35 1017.8
20260506233032 71 103 0.0 0.0 0.00 0.00 0.00 34 1017.7
20260506231130 72 97 0.0 0.0 0.00 0.00 0.00 34 1017.9
20260506225132 71 112 0.0 0.0 0.00 0.00 0.00 34 1018.1
20260506223231 72 283 0.0 0.0 0.00 0.00 0.00 34 1018.2
20260506222232 72 100 0.0 2.0 0.00 0.00 0.00 34 1018.4
20260506221230 72 87 0.0 0.0 0.00 0.00 0.00 32 1018.2
20260506221131 72 80 0.0 0.0 0.00 0.00 0.00 32 1018.4
20260506220132 67 335 0.0 0.0 0.00 0.00 0.00 30 1018.3
20260506215130 68 263 0.0 0.0 0.00 0.00 0.00 30 1018.3
20260506214129 69 290 0.0 0.0 0.00 0.00 0.00 29 1018.7
20260506213229 70 347 0.0 0.0 0.00 0.00 0.00 30 1018.7
20260506212231 70 356 0.0 0.0 0.00 0.00 0.00 30 1018.6
20260506210232 70 318 0.0 0.0 0.00 0.00 0.00 30 1018.7
20260506210132 70 336 0.0 0.0 0.00 0.00 0.00 30 1018.7
20260506205130 69 189 0.0 0.0 0.00 0.00 0.00 30 1018.7
20260506204131 70 356 0.0 0.0 0.00 0.00 0.00 33 1019.2
20260506203129 69 2 0.0 0.0 0.00 0.00 0.00 32 1019.1
20260506202131 69 310 0.0 0.0 0.00 0.00 0.00 32 1018.9
20260506201031 70 337 0.0 0.0 0.00 0.00 0.00 33 1019.0
20260506200029 60 254 0.0 0.0 0.00 0.00 0.00 35 1019.1
20260506195929 58 263 0.0 0.0 0.00 0.00 0.00 34 1019.2
20260506193937 67 338 0.0 0.0 0.00 0.00 0.00 100 1019.3
20260506192948 67 132 0.0 0.0 0.00 0.00 0.00 100 1019.4
20260506192030 63 127 0.0 0.0 0.00 0.00 0.00 36 1019.4
20260506191029 65 99 0.0 0.0 0.00 0.00 0.00 35 1019.6
20260506190129 66 95 0.0 0.0 0.00 0.00 0.00 37 1019.6
20260506184134 64 112 2.0 22.0 0.00 0.00 0.00 45 1019.7
20260506183130 63 111 0.0 0.0 0.00 0.00 0.00 49 1020.0
20260506181130 57 83 0.0 0.0 0.00 0.00 0.00 47 1020.2